Weather History for KHFJ - May, 2013

Change the Weather History Date:

Wednesday, May 29, 2013

  Actual Average (KJLN) Record (KJLN)
Temperature  
Mean Temperature 74 °F 70 °F  
Max Temperature 80 °F 81 °F 94 °F (1982)
Min Temperature 68 °F 60 °F 40 °F (1984)
Degree Days  
Heating Degree Days 0 1  
Month to date heating degree days 64  
Since 1 July heating degree days 4067  
Cooling Degree Days 9 6  
Month to date cooling degree days 113  
Year to date cooling degree days 167  
Growing Degree Days 24 (Base 50)    
Moisture  
Dew Point 63 °F    
Average Humidity 71    
Maximum Humidity 88    
Minimum Humidity 54    
Precipitation  
Precipitation 0.00 in 0.18 in 1.35 in (1960)
Month to date precipitation 5.34  
Year to date precipitation 17.58  
Sea Level Pressure  
Sea Level Pressure 29.85 in    
Wind  
Wind Speed 13 mph (SSE)    
Max Wind Speed 23 mph    
Max Gust Speed 29 mph    
Visibility 10 miles    
Events      
T = Trace of Precipitation, MM = Missing Value Source: NWS Daily Summary

Daily Weather History Graph

Daily Weather History Graph

Search for Another Location

Airport or City:

Trip Planner

Search our weather history database for the weather conditions in past years. The results will help you decide how hot, cold, wet, or windy it might be!

Date:

Astronomy

May. 29, 2013 Rise Set
Actual Time 5:59 AM CDT 8:28 PM CDT
Civil Twilight 5:29 AM CDT 8:58 PM CDT
Nautical Twilight 4:52 AM CDT 9:35 PM CDT
Astronomical Twilight 4:11 AM CDT 10:16 PM CDT
Moon No Moon Rise 10:55 AM CDT (5/29)
Length of Visible Light 15h 28m
Length of Day
14h 28m
Waning Gibbous, 73% of the Moon is Illuminated
May 29
Waning Gibbous
May 31
Last Quarter
Jun 8
New
Jun 16
First Quarter
Jun 23
Full

Hourly Weather History & Observations

Time (CDT) Temp. Heat Index Dew Point Humidity Pressure Visibility Wind Dir Wind Speed Gust Speed Precip Events Conditions
12:15 AM 69.8 °F - 62.6 °F 78% 29.86 in 10.0 mi SE 12.7 mph - N/A   Clear
12:35 AM 69.8 °F - 62.6 °F 78% 29.84 in 10.0 mi SE 11.5 mph 18.4 mph N/A   Clear
12:55 AM 71.6 °F - 62.6 °F 73% 29.86 in 10.0 mi SSE 11.5 mph - N/A   Clear
1:15 AM 69.8 °F - 62.6 °F 78% 29.86 in 10.0 mi SSE 12.7 mph - N/A   Clear
1:35 AM 69.8 °F - 62.6 °F 78% 29.87 in 10.0 mi SSE 10.4 mph 16.1 mph N/A   Clear
1:55 AM 69.8 °F - 62.6 °F 78% 29.87 in 10.0 mi SSE 9.2 mph - N/A   Clear
2:15 AM 69.8 °F - 62.6 °F 78% 29.87 in 10.0 mi SE 10.4 mph - N/A   Clear
2:35 AM 69.8 °F - 62.6 °F 78% 29.86 in 10.0 mi SSE 9.2 mph - N/A   Clear
2:55 AM 69.8 °F - 62.6 °F 78% 29.86 in 10.0 mi SSE 10.4 mph - N/A   Clear
3:15 AM 69.8 °F - 62.6 °F 78% 29.86 in 10.0 mi SSE 10.4 mph - N/A   Clear
3:35 AM 68.0 °F - 62.6 °F 83% 29.86 in 10.0 mi SSE 9.2 mph - N/A   Clear
3:55 AM 68.0 °F - 62.6 °F 83% 29.86 in 10.0 mi SSE 8.1 mph - N/A   Clear
4:15 AM 68.0 °F - 62.6 °F 83% 29.86 in 10.0 mi SSE 9.2 mph - N/A   Clear
4:35 AM 68.0 °F - 62.6 °F 83% 29.86 in 10.0 mi SSE 8.1 mph - N/A   Clear
4:55 AM 68.0 °F - 62.6 °F 83% 29.87 in 10.0 mi SSE 9.2 mph - N/A   Clear
5:15 AM 68.0 °F - 62.6 °F 83% 29.88 in 10.0 mi SSE 9.2 mph - N/A   Clear
5:35 AM 68.0 °F - 62.6 °F 83% 29.89 in 10.0 mi SSE 9.2 mph - N/A   Clear
5:55 AM 68.0 °F - 62.6 °F 83% 29.89 in 10.0 mi SSE 8.1 mph - N/A   Clear
6:15 AM 68.0 °F - 62.6 °F 83% 29.90 in 10.0 mi SSE 6.9 mph - N/A   Clear
6:35 AM 68.0 °F - 62.6 °F 83% 29.89 in 10.0 mi SSE 6.9 mph - N/A   Clear
6:55 AM 68.0 °F - 62.6 °F 83% 29.89 in 10.0 mi SSE 8.1 mph - N/A   Clear
7:15 AM 68.0 °F - 64.4 °F 88% 29.89 in 10.0 mi SSE 6.9 mph - N/A   Clear
7:35 AM 69.8 °F - 64.4 °F 83% 29.90 in 10.0 mi SSE 9.2 mph - N/A   Clear
7:55 AM 71.6 °F - 64.4 °F 78% 29.90 in 10.0 mi South 12.7 mph 18.4 mph N/A   Clear
8:15 AM 71.6 °F - 64.4 °F 78% 29.89 in 10.0 mi SSE 11.5 mph - N/A   Clear
8:35 AM 71.6 °F - 62.6 °F 73% 29.89 in 10.0 mi South 11.5 mph - N/A   Clear
8:55 AM 73.4 °F - 64.4 °F 73% 29.90 in 10.0 mi South 11.5 mph - N/A   Clear
9:15 AM 73.4 °F - 64.4 °F 73% 29.90 in 10.0 mi South 13.8 mph 20.7 mph N/A   Clear
9:35 AM 75.2 °F - 64.4 °F 69% 29.90 in 10.0 mi South 19.6 mph 25.3 mph N/A   Scattered Clouds
9:55 AM 75.2 °F - 64.4 °F 69% 29.89 in 10.0 mi South 16.1 mph 24.2 mph N/A   Scattered Clouds
10:15 AM 75.2 °F - 62.6 °F 65% 29.89 in 10.0 mi South 18.4 mph 28.8 mph N/A   Mostly Cloudy
10:35 AM 77.0 °F - 64.4 °F 65% 29.89 in 10.0 mi South 19.6 mph 23.0 mph N/A   Mostly Cloudy
10:55 AM 77.0 °F - 64.4 °F 65% 29.89 in 10.0 mi SSE 17.3 mph 26.5 mph N/A   Scattered Clouds
11:15 AM 77.0 °F - 64.4 °F 65% 29.88 in 10.0 mi South 19.6 mph 26.5 mph N/A   Mostly Cloudy
11:35 AM 77.0 °F - 64.4 °F 65% 29.89 in 10.0 mi South 17.3 mph 24.2 mph N/A   Mostly Cloudy
11:55 AM 78.8 °F - 64.4 °F 61% 29.89 in 10.0 mi South 17.3 mph 25.3 mph N/A   Mostly Cloudy
12:15 PM 77.0 °F - 62.6 °F 61% 29.90 in 10.0 mi South 17.3 mph 24.2 mph N/A   Overcast
12:35 PM 77.0 °F - 62.6 °F 61% 29.90 in 10.0 mi South 17.3 mph 25.3 mph N/A   Overcast
12:55 PM 77.0 °F - 64.4 °F 65% 29.89 in 10.0 mi South 13.8 mph 23.0 mph N/A   Overcast
1:15 PM 78.8 °F - 62.6 °F 57% 29.88 in 10.0 mi South 20.7 mph 25.3 mph N/A   Mostly Cloudy
1:35 PM 78.8 °F - 62.6 °F 57% 29.87 in 10.0 mi South 17.3 mph 25.3 mph N/A   Scattered Clouds
1:55 PM 80.6 °F 82.3 °F 64.4 °F 58% 29.87 in 10.0 mi South 23.0 mph 27.6 mph N/A   Scattered Clouds
2:15 PM 80.6 °F 81.8 °F 62.6 °F 54% 29.86 in 10.0 mi South 17.3 mph 24.2 mph N/A   Scattered Clouds
2:35 PM 78.8 °F - 62.6 °F 57% 29.86 in 10.0 mi South 18.4 mph 26.5 mph N/A   Scattered Clouds
2:55 PM 78.8 °F - 62.6 °F 57% 29.86 in 10.0 mi South 19.6 mph 25.3 mph N/A   Mostly Cloudy
3:15 PM 78.8 °F - 64.4 °F 61% 29.86 in 10.0 mi South 16.1 mph 26.5 mph N/A   Overcast
3:35 PM 78.8 °F - 64.4 °F 61% 29.85 in 10.0 mi South 16.1 mph 23.0 mph N/A   Mostly Cloudy
3:55 PM 78.8 °F - 62.6 °F 57% 29.84 in 10.0 mi SSE 16.1 mph 28.8 mph N/A   Scattered Clouds
4:15 PM 77.0 °F - 62.6 °F 61% 29.83 in 10.0 mi South 16.1 mph 24.2 mph N/A   Scattered Clouds
4:35 PM 77.0 °F - 64.4 °F 65% 29.83 in 10.0 mi SSE 12.7 mph 17.3 mph N/A   Mostly Cloudy
4:55 PM 77.0 °F - 64.4 °F 65% 29.82 in 10.0 mi SSE 9.2 mph - N/A   Mostly Cloudy
5:15 PM 77.0 °F - 64.4 °F 65% 29.81 in 10.0 mi SSE 12.7 mph 25.3 mph N/A   Overcast
5:35 PM 77.0 °F - 64.4 °F 65% 29.80 in 10.0 mi SSE 10.4 mph 18.4 mph N/A   Mostly Cloudy
5:55 PM 77.0 °F - 64.4 °F 65% 29.79 in 10.0 mi SSE 13.8 mph 23.0 mph N/A   Clear
6:15 PM 78.8 °F - 64.4 °F 61% 29.78 in 10.0 mi SSE 18.4 mph 23.0 mph N/A   Clear
6:35 PM 77.0 °F - 64.4 °F 65% 29.77 in 10.0 mi SSE 19.6 mph 25.3 mph N/A   Scattered Clouds
6:55 PM 77.0 °F - 64.4 °F 65% 29.77 in 10.0 mi SSE 12.7 mph - N/A   Clear
7:15 PM 77.0 °F - 64.4 °F 65% 29.78 in 10.0 mi SSE 12.7 mph 17.3 mph N/A   Clear
7:35 PM 77.0 °F - 64.4 °F 65% 29.78 in 10.0 mi SSE 13.8 mph 24.2 mph N/A   Clear
7:55 PM 75.2 °F - 64.4 °F 69% 29.78 in 10.0 mi SSE 15.0 mph 19.6 mph N/A   Scattered Clouds
8:15 PM 73.4 °F - 62.6 °F 69% 29.79 in 10.0 mi SSE 17.3 mph - N/A   Clear
8:35 PM 73.4 °F - 62.6 °F 69% 29.80 in 10.0 mi SSE 16.1 mph 19.6 mph N/A   Clear
8:55 PM 73.4 °F - 62.6 °F 69% 29.80 in 10.0 mi SSE 15.0 mph 24.2 mph N/A   Clear
9:15 PM 73.4 °F - 62.6 °F 69% 29.81 in 10.0 mi SSE 10.4 mph 20.7 mph N/A   Clear
9:35 PM 73.4 °F - 62.6 °F 69% 29.81 in 10.0 mi SSE 11.5 mph 17.3 mph N/A   Clear
9:55 PM 71.6 °F - 62.6 °F 73% 29.81 in 10.0 mi SSE 13.8 mph 19.6 mph N/A   Clear
10:15 PM 73.4 °F - 62.6 °F 69% 29.81 in 10.0 mi SSE 12.7 mph 18.4 mph N/A   Clear
10:35 PM 71.6 °F - 62.6 °F 73% 29.79 in 10.0 mi SSE 13.8 mph 20.7 mph N/A   Clear
10:55 PM 71.6 °F - 62.6 °F 73% 29.79 in 10.0 mi SSE 13.8 mph 20.7 mph N/A   Clear
11:15 PM 71.6 °F - 62.6 °F 73% 29.80 in 10.0 mi SSE 15.0 mph 20.7 mph N/A   Clear
11:35 PM 71.6 °F - 62.6 °F 73% 29.79 in 10.0 mi SSE 15.0 mph 20.7 mph N/A   Clear
11:55 PM 71.6 °F - 62.6 °F 73% 29.80 in 10.0 mi SSE 12.7 mph 18.4 mph N/A   Clear